Change the Weather History Date:

Sunday, May 11, 2014

  Actual Average Record
Temperature  
Mean Temperature 52 °F 55 °F  
Max Temperature 67 °F 67 °F 92 °F (1997)
Min Temperature 37 °F 43 °F 29 °F (1985)
Degree Days  
Heating Degree Days 13 10  
Month to date heating degree days 116 122  
Since 1 July heating degree days 4781 4684  
Cooling Degree Days 0 0  
Month to date cooling degree days 1 0  
Year to date cooling degree days 1 0  
Growing Degree Days 2 (Base 50)    
Moisture  
Dew Point 42 °F    
Average Humidity 68    
Maximum Humidity 93    
Minimum Humidity 42    
Precipitation  
Precipitation 0.00 in 0.08 in 0.98 in (1957)
Month to date precipitation 0.98 0.96  
Year to date precipitation 17.94 18.17  
Sea Level Pressure  
Sea Level Pressure 30.29 in    
Wind  
Wind Speed 3 mph (North)    
Max Wind Speed 9 mph    
Max Gust Speed 13 mph    
Visibility 10 miles    
Events      
T = Trace of Precipitation, MM = Missing Value Source: NWS Daily Summary

Daily Weather History Graph

Daily Weather History Graph

Search for Another Location

Airport or City:

Trip Planner

Search our weather history database for the weather conditions in past years. The results will help you decide how hot, cold, wet, or windy it might be!

Date:

Astronomy

May. 11, 2014 Rise Set
Actual Time 5:45 AM PDT 8:31 PM PDT
Civil Twilight 5:11 AM PDT 9:05 PM PDT
Nautical Twilight 4:28 AM PDT 9:48 PM PDT
Astronomical Twilight 3:38 AM PDT 10:39 PM PDT
Moon 5:24 PM PDT (5/11) 4:04 AM PDT (5/11)
Length of Visible Light 15h 53m
Length of Day
14h 45m
Waxing Gibbous, 90% of the Moon is Illuminated
May 11
Waxing Gibbous
May 14
Full
May 21
Last Quarter
May 28
New
Jun 5
First Quarter

Hourly Weather History & Observations

Time (PDT) Temp. Windchill Dew Point Humidity Pressure Visibility Wind Dir Wind Speed Gust Speed Precip Events Conditions
12:53 AM 45.0 °F 43.5 °F 41.0 °F 86% 30.31 in 10.0 mi West 3.5 mph - N/A   Partly Cloudy
1:53 AM 42.1 °F - 39.9 °F 92% 30.32 in 10.0 mi Calm Calm - N/A   Clear
2:53 AM 41.0 °F - 39.0 °F 93% 30.32 in 10.0 mi Calm Calm - N/A   Clear
3:53 AM 39.9 °F - 37.9 °F 93% 30.33 in 10.0 mi Calm Calm - N/A   Partly Cloudy
4:53 AM 39.0 °F - 37.0 °F 93% 30.32 in 10.0 mi Calm Calm - N/A   Clear
5:53 AM 39.0 °F - 37.0 °F 93% 30.33 in 10.0 mi Calm Calm - N/A   Mostly Cloudy
6:53 AM 41.0 °F - 39.0 °F 93% 30.34 in 10.0 mi Calm Calm - N/A   Partly Cloudy
7:53 AM 44.1 °F 41.5 °F 42.1 °F 93% 30.35 in 10.0 mi WNW 4.6 mph - N/A   Clear
8:53 AM 48.0 °F - 43.0 °F 83% 30.34 in 10.0 mi Calm Calm - N/A   Partly Cloudy
9:53 AM 54.0 °F - 45.0 °F 72% 30.33 in 10.0 mi Calm Calm - N/A   Scattered Clouds
11:53 AM 59.0 °F - 43.0 °F 55% 30.32 in 10.0 mi SE 4.6 mph - N/A   Scattered Clouds
12:53 PM 62.1 °F - 41.0 °F 46% 30.31 in 10.0 mi North 4.6 mph - N/A   Overcast
1:53 PM 62.1 °F - 43.0 °F 50% 30.30 in 10.0 mi North 5.8 mph - N/A   Mostly Cloudy
2:53 PM 64.0 °F - 44.1 °F 48% 30.28 in 10.0 mi NNW 5.8 mph - N/A   Scattered Clouds
3:53 PM 64.9 °F - 43.0 °F 45% 30.26 in 10.0 mi ESE 4.6 mph - N/A   Partly Cloudy
4:53 PM 66.0 °F - 42.1 °F 42% 30.25 in 10.0 mi Variable 4.6 mph - N/A   Clear
5:53 PM 66.0 °F - 44.1 °F 45% 30.24 in 10.0 mi NE 5.8 mph - N/A   Clear
6:53 PM 64.9 °F - 44.1 °F 47% 30.24 in 10.0 mi NNE 6.9 mph - N/A   Clear
7:53 PM 64.9 °F - 44.1 °F 47% 30.23 in 10.0 mi Calm Calm - N/A   Clear
8:53 PM 55.9 °F - 46.9 °F 72% 30.23 in 10.0 mi Calm Calm - N/A   Clear
9:53 PM 53.1 °F - 46.9 °F 80% 30.25 in 10.0 mi NW 3.5 mph - N/A   Clear
10:53 PM 52.0 °F - 46.0 °F 80% 30.26 in 10.0 mi WNW 5.8 mph - N/A   Clear
11:53 PM 50.0 °F - 46.0 °F 86% 30.27 in 10.0 mi Calm Calm - N/A   Clear